South Lake Tahoe, CA

5:44 PM PST on December 11, 2017 (GMT -0800)
Lake Tahoe

Weather History for KTVL - June, 2012

Change the Weather History Date:

Saturday, June 2, 2012

  Actual Average Record
Temperature  
Mean Temperature 59 °F 52 °F  
Max Temperature 76 °F 68 °F 82 °F (1992)
Min Temperature 41 °F 35 °F 27 °F (2000)
Degree Days  
Heating Degree Days 6 13  
Month to date heating degree days 9 27  
Since 1 June heating degree days 9 27  
Since 1 July heating degree days 6726 7449  
Cooling Degree Days 0 0  
Month to date cooling degree days 0 0  
Year to date cooling degree days 0 0  
Since 1 June cooling degree days 0 0  
Growing Degree Days 8 (Base 50)    
Moisture  
Dew Point 38 °F    
Average Humidity 52    
Maximum Humidity 82    
Minimum Humidity 21    
Precipitation  
Precipitation 0.00 in - 0.38 in (1961)
Month to date precipitation 0.00  
Year to date precipitation 9.88  
Sea Level Pressure  
Sea Level Pressure 29.91 in    
Wind  
Wind Speed 6 mph (SSW)    
Max Wind Speed 21 mph    
Max Gust Speed 30 mph    
Visibility 10 miles    
Events      
T = Trace of Precipitation, MM = Missing Value Source: NWS Daily Summary

Daily Weather History Graph

Daily Weather History Graph

Search for Another Location

Airport or City:

Trip Planner

Search our weather history database for the weather conditions in past years. The results will help you decide how hot, cold, wet, or windy it might be!

Date:

Astronomy

Jun. 02, 2012 Rise Set
Actual Time 5:35 AM PDT 8:20 PM PDT
Civil Twilight 5:04 AM PDT 8:52 PM PDT
Nautical Twilight 4:25 AM PDT 9:31 PM PDT
Astronomical Twilight 3:40 AM PDT 10:16 PM PDT
Moon 6:42 PM PDT (6/2) 3:57 AM PDT (6/2)
Length of Visible Light 15h 47m
Length of Day
14h 44m
Waxing Gibbous, 96% of the Moon is Illuminated
Jun 2
Waxing Gibbous
Jun 4
Full
Jun 11
Last Quarter
Jun 19
New
Jun 26
First Quarter

Hourly Weather History & Observations

Time (PDT) Temp. Windchill Dew Point Humidity Pressure Visibility Wind Dir Wind Speed Gust Speed Precip Events Conditions
12:53 AM 48.9 °F - 43.0 °F 80% 29.91 in 10.0 mi SSW 3.5 mph - N/A   Clear
1:53 AM 46.0 °F 43.1 °F 41.0 °F 83% 29.90 in 10.0 mi South 5.8 mph - N/A   Clear
2:53 AM 43.0 °F - 37.9 °F 82% 29.90 in 10.0 mi Calm Calm - N/A   Clear
3:53 AM 42.1 °F - 35.1 °F 76% 29.91 in 10.0 mi Calm Calm - N/A   Clear
4:53 AM 42.1 °F - 34.0 °F 73% 29.90 in 10.0 mi Calm Calm - N/A   Clear
5:53 AM 43.0 °F - 34.0 °F 71% 29.91 in 10.0 mi Calm Calm - N/A   Clear
6:53 AM 46.9 °F - 36.0 °F 66% 29.93 in 10.0 mi Calm Calm - N/A   Clear
7:53 AM 60.1 °F - 42.1 °F 51% 29.90 in 10.0 mi Variable 4.6 mph - N/A   Clear
8:53 AM 66.9 °F - 37.0 °F 33% 29.90 in 10.0 mi South 12.7 mph - N/A   Clear
9:53 AM 71.1 °F - 33.1 °F 25% 29.89 in 10.0 mi SSW 8.1 mph 21.9 mph N/A   Clear
10:53 AM 73.0 °F - 33.1 °F 23% 29.89 in 10.0 mi SSW 11.5 mph 19.6 mph N/A   Clear
11:53 AM 73.0 °F - 33.1 °F 23% 29.91 in 10.0 mi SSW 13.8 mph 23.0 mph N/A   Clear
12:53 PM 73.9 °F - 32.0 °F 21% 29.91 in 10.0 mi Variable 6.9 mph 19.6 mph N/A   Clear
1:53 PM 75.0 °F - 34.0 °F 22% 29.91 in 10.0 mi South 18.4 mph 24.2 mph N/A   Clear
2:53 PM 73.0 °F - 37.0 °F 27% 29.93 in 10.0 mi SSW 9.2 mph 19.6 mph N/A   Clear
3:53 PM 73.0 °F - 37.9 °F 28% 29.92 in 10.0 mi SSW 11.5 mph 28.8 mph N/A   Clear
4:53 PM 73.0 °F - 39.0 °F 29% 29.92 in 10.0 mi SSW 12.7 mph 26.5 mph N/A   Clear
5:53 PM 69.1 °F - 44.1 °F 40% 29.93 in 10.0 mi South 16.1 mph 24.2 mph N/A   Clear
6:53 PM 66.0 °F - 45.0 °F 47% 29.93 in 10.0 mi SSW 11.5 mph 19.6 mph N/A   Clear
7:53 PM 64.0 °F - 46.0 °F 52% 29.91 in 10.0 mi South 11.5 mph 18.4 mph N/A   Clear
8:53 PM 61.0 °F - 46.0 °F 58% 29.91 in 10.0 mi South 9.2 mph - N/A   Clear
9:53 PM 60.1 °F - 45.0 °F 57% 29.91 in 10.0 mi South 12.7 mph - N/A   Clear
10:53 PM 60.1 °F - 39.0 °F 46% 29.92 in 10.0 mi South 13.8 mph - N/A   Clear
11:53 PM 57.0 °F - 36.0 °F 45% 29.93 in 10.0 mi SSW 8.1 mph - N/A   Clear